Location: Columbia
(38.9520°N, 92.3340°W)
Time: 22:58:26
(UTC-05:00)

Daily predictions for brighter satellites

Satellite Brightness Start Highest point End
(mag) Time Altitude Azimuth Time Altitude Azimuth Time Altitude Azimuth
Cosmos 2360 4.2 20:21:57 10° SSW 20:27:38 85° ESE 20:33:22 10° NNE
Cosmos 2297 Rocket 4.1 20:22:44 10° NW 20:27:41 32° WSW 20:32:36 10° SSW
ATLAS 3B R/B 4.4 20:27:49 10° N 20:32:04 17° NNE 20:36:13 10° ENE
GPS 2-05 Rocket1 3.2 20:29:13 10° WSW 20:32:29 45° S 20:35:41 10° ESE
USA 186 2.3 20:29:49 10° SSE 20:32:59 43° ENE 20:36:14 10° N
Cosmos 1602 4.2 20:29:37 10° SSE 20:33:12 38° E 20:36:47 10° NNE
Okean 2 Rocket 3.1 20:28:47 10° S 20:33:16 81° E 20:37:48 10° N
Meteor 1-11 Rocket 4.4 20:28:30 10° SSE 20:33:46 36° E 20:38:57 10° NNE
Envisat 3.4 20:29:50 10° SE 20:34:37 44° ENE 20:39:26 10° N
SJ-6B 4.1 20:35:34 10° S 20:39:26 45° W 20:43:24 10° NNW
USA 267 3.8 20:35:04 10° SSE 20:41:28 56° SW 20:47:55 10° NW
Resurs 1-3 3.6 20:46:25 10° SSE 20:50:48 89° ENE 20:55:12 10° NNW
Cosmos 2322 Rocket 2.3 20:45:45 10° S 20:51:15 53° ESE 20:56:47 10° NNE
Cosmos 2263 Rocket 3.2 20:46:52 10° N 20:51:55 31° ENE 20:55:52 15° ESE
Cosmos 44 Rocket 3.4 20:52:59 10° NW 20:57:44 77° WSW 21:02:28 10° SSE
Cosmos 1939 Rocket 3.1 20:56:09 12° SSE 20:59:46 51° ENE 21:03:36 10° N
SL-16 R/B 2.2 20:56:22 10° S 21:01:57 65° ESE 21:07:34 10° NNE
Okean 1 4.1 20:58:15 10° NNW 21:02:08 53° W 21:06:00 10° S
Uosat 12 SS-18 rocket 4.4 21:00:19 10° SSW 21:04:59 79° ESE 21:10:43 10° NE
Cosmos 1633 4.1 21:02:15 10° SSW 21:05:39 38° W 21:09:05 10° N
ATLAS 2AS CENTAUR R/B 3.2 20:58:34 10° S 21:05:44 48° ESE 21:13:22 10° NE
Cosmos 1536 3.2 21:01:57 10° SSE 21:05:49 44° E 21:09:43 10° NNE
Meteor 1-19 Rocket 4.3 21:00:35 10° N 21:06:29 76° E 21:12:15 10° SSE
Cosmos 1452 Rocket 4.2 21:03:11 10° SSW 21:08:23 59° WNW 21:13:37 10° N
Lacrosse 5 rocket 1.4 21:05:17 10° NW 21:08:56 61° SW 21:11:32 19° SSE
YAOGAN 6 2.9 21:08:45 22° SE 21:10:41 45° ENE 21:14:04 10° N
Cosmos 1420 Rocket 4.1 21:06:24 10° SSW 21:11:34 80° WNW 21:16:47 10° NNE
Cosmos 1850 Rocket 4.2 21:06:55 10° N 21:12:11 56° ENE 21:15:44 20° SE
NOSS 2-3 (E) 3.7 21:11:59 10° SSW 21:16:34 73° ESE 21:21:50 10° NE
Okean 1 Rocket 3.4 21:15:27 18° SSE 21:18:20 43° E 21:22:29 10° NNE
Helios 1B rocket 2.6 21:16:16 10° NNE 21:20:16 49° E 21:23:21 16° S
S3M 4.1 21:14:02 10° N 21:20:20 83° W 21:26:40 10° S
Resurs 01 Rocket 3.1 21:17:54 10° SSW 21:22:00 37° W 21:26:09 10° NNW
Cosmos 1553 Rocket 4.2 21:16:37 10° N 21:22:45 73° W 21:28:46 10° S
Cosmos 1607 4.4 21:16:49 10° NNW 21:23:03 48° NE 21:26:39 25° ESE
Cosmos 1300 Rocket 3.4 21:18:51 10° S 21:23:08 77° E 21:27:28 10° N
Cosmos 2360 Rocket 2.6 21:20:09 10° S 21:25:19 39° ESE 21:30:31 10° NE
Okean 1-7 Rocket 4.5 21:21:39 10° NNE 21:25:38 31° ENE 21:26:35 28° E
Tiangong 1 1.6 21:23:03 10° WNW 21:25:44 43° N 21:26:21 35° NE
Cosmos 1980 Rocket 4.4 21:21:57 10° WSW 21:26:40 27° WNW 21:31:25 10° N
Cosmos 2266 Rocket 3.8 21:21:17 10° S 21:27:17 72° E 21:33:18 10° N
Cosmos 2315 Rocket 4.4 21:22:52 10° N 21:28:49 44° ENE 21:31:52 26° SE
BREEZE-M DEB (TANK) 3.5 21:27:52 10° W 21:30:47 27° NNW 21:32:24 12° NNE
Meteor 1-5 Rocket 4.0 21:25:30 10° S 21:30:47 65° E 21:36:02 10° NNE
Cosmos 1025 Rocket 3.6 21:28:17 10° N 21:32:15 36° ENE 21:32:56 34° E
SeaSat 1 3.3 21:29:16 10° NNE 21:34:03 52° WNW 21:38:48 10° SW
Cosmos 220 Rocket 4.4 21:30:46 10° N 21:34:53 43° ENE 21:35:52 37° ESE
SPOT 5 4.0 21:35:22 25° E 21:36:09 27° ENE 21:40:06 10° NNE
Lacrosse 5 1.7 21:36:15 10° SW 21:41:18 75° SE 21:46:23 10° NE
Meteor 2-4 Rocket 3.8 21:35:55 10° NNW 21:41:29 77° W 21:45:55 17° S
NOAA 11 4.2 21:41:12 31° SSE 21:43:50 67° ENE 21:49:18 10° N
DELTA 2 R/B (1) 4.3 21:41:38 10° W 21:46:52 41° SSW 21:48:44 31° SSE
CZ-4B DEB 2.8 21:48:19 61° NNW 21:48:19 61° NNW 21:50:46 10° NNW
USA 245 4.5 21:47:46 37° E 21:48:38 40° ENE 21:52:53 10° N
NOSS 2-3 (C) 4.5 21:45:42 10° SW 21:50:17 58° NW 21:55:38 10° NNE
Atlas Centaur 2 3.3 21:48:48 10° WSW 21:56:05 39° SSW 21:58:01 33° SSE
Okean 2 3.4 21:52:25 10° N 21:56:26 59° E 21:56:26 59° E
Helios 1A 3.8 21:58:19 27° SSW 22:00:18 47° W 22:04:25 10° NNW
Meteor 1-29 3.4 21:56:59 10° N 22:00:21 58° WNW 22:01:00 48° WSW
SAR-Lupe-4 3.5 22:02:02 81° WNW 22:02:02 81° WNW 22:05:33 10° NNW
Cosmos 1932 4.4 21:56:16 10° NNW 22:02:47 79° ENE 22:04:55 45° SE
USA 238 DEB 4.2 21:57:16 10° NNW 22:04:06 47° NE 22:06:31 35° E
USA 238 4.3 21:57:23 10° NNW 22:04:12 47° NE 22:06:37 35° E
ERS-1 Rocket 2.9 22:06:24 47° S 22:07:53 81° WSW 22:12:56 10° NNW
MetOp-A 4.0 22:06:28 48° SSE 22:08:03 88° ENE 22:13:26 10° NNW
H-2A R/B 2.3 22:10:30 48° E 22:10:40 48° ENE 22:15:29 10° N
Cosmos 1892 Rocket 4.3 22:08:46 10° N 22:12:13 40° NE 22:12:13 40° NE
Cosmos 1975 4.2 22:23:15 30° NNE 22:23:15 30° NNE 22:25:25 10° NNE
SL-08 RB Rocket 3.7 22:23:36 77° NNE 22:23:36 77° NNE 22:27:55 10° N
ATLAS 3B R/B 2.6 22:17:22 10° NNW 22:24:05 69° NE 22:25:20 56° ESE
Meteor 1-12 Rocket 4.2 22:27:34 65° E 22:27:34 65° E 22:33:02 10° NNE
Terra 3.2 22:29:05 28° NE 22:29:05 28° NE 22:32:10 10° N
ARGOS 3.1 22:27:17 61° SSW 22:28:10 76° WSW 22:33:33 10° NNW
Cosmos 1241 Rocket 4.4 22:29:18 62° SE 22:29:36 63° ESE 22:36:01 10° NE
Cosmos 1302 Rocket 4.0 22:35:30 76° NE 22:35:30 76° NE 22:40:24 10° NNE
Cosmos 2278 Rocket 3.9 22:31:11 10° N 22:35:13 19° NE 22:35:15 19° NE
Cosmos 2263 Rocket 3.4 22:30:41 10° NW 22:35:50 36° WSW 22:37:35 29° SW
Cosmos 2237 4.1 22:34:51 55° SSW 22:36:10 84° WNW 22:41:54 10° NNE
Cosmos 1486 Rocket 4.2 22:32:04 10° NNW 22:36:47 61° NE 22:36:47 61° NE
Cosmos 1455 Rocket 4.3 22:41:15 36° NNE 22:41:15 36° NNE 22:43:55 10° N
Cosmos 1844 Rocket 3.0 22:38:28 10° NNW 22:43:39 54° NE 22:43:39 54° NE
Nadezhda 1 Rocket 4.1 22:42:13 10° N 22:48:14 62° ENE 22:48:14 62° ENE
Cosmos 2219 Rocket 3.4 22:57:52 31° NE 22:57:52 31° NE 23:00:50 10° NNE
ATLAS 2AS CENTAUR R/B 4.1 22:49:34 10° WSW 22:56:52 43° NW 23:04:32 10° NNE
DMSP B5D2-2 4.4 22:53:33 10° NNE 22:57:49 60° N 22:57:49 60° N
Cosmos 1238 Rocket 4.3 22:52:52 10° NNW 22:59:30 61° W 23:00:28 55° SW
COSMOS 2428 2.9 23:04:15 69° NW 23:04:15 69° NW 23:09:43 10° NNE
Cosmos 2360 Rocket 4.0 23:04:34 10° WSW 23:09:23 29° WNW 23:14:14 10° N
SPOT 1/Viking Rocket 4.4 23:12:34 45° W 23:12:34 45° W 23:17:02 10° NNW
SPOT 5 4.4 23:14:37 31° W 23:14:37 31° W 23:18:20 10° NW
CENTAUR R/B 4.3 23:08:27 10° NNW 23:15:06 29° NE 23:17:28 25° ENE
Cosmos 1844 4.2 23:10:28 10° NNW 23:14:57 56° N 23:14:57 56° N
Cosmos 2333 Rocket 3.5 23:20:18 31° NNE 23:20:18 31° NNE 23:23:09 10° NNE
H-2A R/B 4.2 23:27:11 23° N 23:27:11 23° N 23:28:53 10° N
Lacrosse 5 4.1 23:20:42 10° W 23:24:45 23° NNW 23:28:47 10° NNE
Cosmos 2237 Rocket 3.8 23:42:17 26° NNE 23:42:17 26° NNE 23:44:38 10° NNE
H-2A R/B 4.2 23:51:08 17° W 23:51:08 17° W 23:53:43 10° NW
